STARLINK-32433, 61852

Orbit data source: Space-Track

STARLINK-32433, 61852 is a payload satellite owned by SpaceX/Seattle (US) in LEO that was launched on Thu, 07 Nov 2024 UTC via an FALCON 9 launch vehicle from the Air Force Eastern Test Range (AFETR). Payload-class satellites include a variety of spacecraft equipped with specific instruments for various scientific and technological missions. These include communications satellites like Starlink; space stations such as the ISS; scientific satellites like the Hubble; Earth observation satellites from companies like Planet Labs, Umbra, and HawkEye 360; GPS; miniature CubeSats for education and research; and military/defense satellites.

Loading next visibility...
Identifier
61852, 2024-202H
Orbit
LEO
Country
Flag of USUS
Related business
Manufacturer
SpaceX/Seattle
Mission
Operational Commercial Communications
Bus & Motor
STARLINK V2M, Unknown motor
Mass
730 kg wet, ~700 kg dry
Launch date (UTC)
2024-11-07 (2 years ago)
Launch vehicle
FALCON 9
Launch site
Air Force Eastern Test Range (AFETR)
Object type
Payload
Rocket body
Debris
Shape & HBR
Box + 2 Pan, 17.7 m
Radar Cross Section
33.884 m², Large (>1 m²)

Expand to show TLE details & history
Last TLE update: 2 days ago

TLE from 2 days ago
0 STARLINK-32433
1 61852U 24202H   26265.19177535  .00000465  00000-0  26409-4 0  9991
2 61852  43.0011 207.9420 0001211 269.4841  90.5872 15.27578519105395
Epoch: 2026-09-22T04:36Z
TLE epoch observation values (Epoch: 2026-09-22T04:36:09.390Z)
Latitude
-0°
Longitude
137.84209°
Altitude
482.838 km
Speed
7.626 km/s
True Right ascension
13h 51m 46s
True Declination
0° 00' 00"
Sunlit
Object was in daylight at epoch
Visualization orbit readout
Latitude
Unknown
Longitude
Unknown
Altitude
Unknown
Speed
Unknown
Apparent Right ascension
Unknown
Apparent Declination
Unknown
Sunlit
N/A
Visualization observer readout
Local Sidereal Time
20:46:41
Azimuth
Unknown
Elevation
Unknown
Doppler factor
Unknown
Orbital elements
Apogee altitude
485.83 km
Perigee altitude
484.167 km
Semi-major axis
6,863.136 km
Eccentricity
0.00012
Inclination
43.0011°
RAAN
207.942°
Arg. of periapsis
269.4841°
True anomaly
90.60108°
Mean anomaly
90.5872°
Eccentric anomaly
90.59414°
Mean motion
3.81733 °/min
Orbital period
94.31 mins
BSTAR
0.000026409
Loading maneuver chart data...
Computing Atmospheric mass density...
Loading historical data...
Loading historical data...
Loading historical data...
Loading historical data...
Loading historical data...
Loading historical data...
Loading historical data...

Documentation

Showing up to 5 results
|